Previsão horária em Alikanas

Hoje, 29 Novembro, Domingo

Tempo Temperatura Precipitação Vento Pressão Humidade
00:00 +16°C° 0 mm 7 m/s 762 mmHg 66%
01:00 +17°C° 0 mm 8 m/s 762 mmHg 67%
02:00 +17°C° 0.1 mm 8 m/s 761 mmHg 67%
03:00 +17°C° 0.1 mm 8 m/s 761 mmHg 67%
04:00 +17°C° 0.1 mm 8 m/s 760 mmHg 68%
05:00 +17°C° 0.3 mm 9 m/s 760 mmHg 70%
06:00 +17°C° 0.3 mm 9 m/s 760 mmHg 72%
07:00 +17°C° 0.3 mm 10 m/s 759 mmHg 75%
08:00 +17°C° 0.9 mm 11 m/s 759 mmHg 77%
09:00 +17°C° 0.9 mm 11 m/s 759 mmHg 78%
10:00 +17°C° 0.9 mm 11 m/s 759 mmHg 80%
11:00 +16°C° 4.1 mm 11 m/s 759 mmHg 84%
12:00 +16°C° 4.1 mm 10 m/s 758 mmHg 88%
13:00 +16°C° 4.1 mm 9 m/s 758 mmHg 91%
14:00 +16°C° 3.4 mm 9 m/s 758 mmHg 89%
15:00 +16°C° 3.4 mm 8 m/s 757 mmHg 86%
16:00 +17°C° 3.4 mm 8 m/s 757 mmHg 84%
17:00 +16°C° 1.3 mm 8 m/s 757 mmHg 85%
18:00 +16°C° 1.3 mm 8 m/s 757 mmHg 86%
19:00 +16°C° 1.3 mm 7 m/s 757 mmHg 86%
20:00 +16°C° 0.3 mm 7 m/s 757 mmHg 85%
21:00 +16°C° 0.3 mm 6 m/s 757 mmHg 84%
22:00 +16°C° 0.3 mm 6 m/s 757 mmHg 84%
23:00 +16°C° 0.2 mm 5 m/s 757 mmHg 82%

Amanhã, 30 Novembro, Segunda-feira

Tempo Temperatura Precipitação Vento Pressão Humidade
00:00 +16°C° 0.2 mm 5 m/s 757 mmHg 80%
01:00 +17°C° 0.2 mm 4 m/s 757 mmHg 78%
02:00 +17°C° 0.3 mm 4 m/s 757 mmHg 79%
03:00 +17°C° 0.3 mm 4 m/s 757 mmHg 79%
04:00 +15°C° 0.3 mm 4 m/s 757 mmHg 79%
05:00 +15°C° 0 mm 4 m/s 757 mmHg 80%
06:00 +15°C° 0 mm 4 m/s 758 mmHg 82%
07:00 +15°C° 0 mm 4 m/s 758 mmHg 83%
08:00 +17°C° 0 mm 4 m/s 758 mmHg 79%
09:00 +18°C° 0 mm 4 m/s 759 mmHg 75%
10:00 +18°C° 0 mm 4 m/s 759 mmHg 71%
11:00 +19°C° 0 mm 4 m/s 759 mmHg 68%
12:00 +19°C° 0 mm 4 m/s 759 mmHg 65%
13:00 +19°C° 0 mm 4 m/s 759 mmHg 62%
14:00 +19°C° 0 mm 5 m/s 759 mmHg 64%
15:00 +19°C° 0 mm 5 m/s 759 mmHg 66%
16:00 +17°C° 0 mm 5 m/s 759 mmHg 68%
17:00 +17°C° 0 mm 5 m/s 760 mmHg 69%
18:00 +17°C° 0 mm 5 m/s 760 mmHg 71%
19:00 +17°C° 0 mm 5 m/s 760 mmHg 72%
20:00 +17°C° 0 mm 4 m/s 761 mmHg 71%
21:00 +17°C° 0 mm 4 m/s 761 mmHg 70%
22:00 +17°C° 0 mm 4 m/s 761 mmHg 69%
23:00 +17°C° 0 mm 4 m/s 761 mmHg 71%

Depois de amanhã, 1 Dezembro, Terça-feira

Tempo Temperatura Precipitação Vento Pressão Humidade
00:00 +17°C° 0 mm 4 m/s 761 mmHg 73%
01:00 +17°C° 0 mm 4 m/s 761 mmHg 74%
02:00 +15°C° 0 mm 4 m/s 761 mmHg 76%
03:00 +15°C° 0 mm 4 m/s 761 mmHg 77%
04:00 +15°C° 0 mm 4 m/s 761 mmHg 78%
05:00 +15°C° 0 mm 4 m/s 762 mmHg 78%
06:00 +15°C° 0 mm 4 m/s 762 mmHg 79%
07:00 +15°C° 0 mm 4 m/s 762 mmHg 79%
08:00 +17°C° 0 mm 4 m/s 762 mmHg 75%
09:00 +17°C° 0 mm 3 m/s 762 mmHg 70%
10:00 +18°C° 0 mm 3 m/s 762 mmHg 65%
11:00 +18°C° 0 mm 3 m/s 762 mmHg 64%
12:00 +18°C° 0 mm 3 m/s 762 mmHg 63%
13:00 +18°C° 0 mm 3 m/s 762 mmHg 61%
14:00 +17°C° 0 mm 3 m/s 762 mmHg 63%
15:00 +17°C° 0 mm 3 m/s 761 mmHg 66%
16:00 +17°C° 0 mm 3 m/s 761 mmHg 68%
17:00 +16°C° 0 mm 3 m/s 762 mmHg 68%
18:00 +16°C° 0 mm 2 m/s 762 mmHg 67%
19:00 +16°C° 0 mm 2 m/s 762 mmHg 67%
20:00 +16°C° 0 mm 2 m/s 762 mmHg 66%
21:00 +15°C° 0 mm 1 m/s 762 mmHg 64%
22:00 +15°C° 0 mm 1 m/s 762 mmHg 63%
23:00 +15°C° 0 mm 1 m/s 762 mmHg 62%

2 Dezembro, Quarta-feira

Tempo Temperatura Precipitação Vento Pressão Humidade
00:00 +15°C° 0 mm 2 m/s 762 mmHg 61%
01:00 +15°C° 0 mm 2 m/s 762 mmHg 60%
02:00 +14°C° 0 mm 3 m/s 762 mmHg 62%
03:00 +14°C° 0 mm 4 m/s 761 mmHg 64%
04:00 +15°C° 0 mm 4 m/s 761 mmHg 66%
05:00 +15°C° 0.3 mm 5 m/s 761 mmHg 70%
06:00 +15°C° 0.3 mm 5 m/s 761 mmHg 74%
07:00 +15°C° 0.3 mm 6 m/s 761 mmHg 78%
08:00 +15°C° 1 mm 7 m/s 761 mmHg 79%
09:00 +16°C° 1 mm 7 m/s 761 mmHg 80%
10:00 +16°C° 1 mm 8 m/s 761 mmHg 82%
11:00 +16°C° 1.7 mm 8 m/s 761 mmHg 81%
12:00 +16°C° 1.7 mm 8 m/s 761 mmHg 81%
13:00 +16°C° 1.7 mm 8 m/s 760 mmHg 81%
14:00 +16°C° 2 mm 8 m/s 760 mmHg 81%
15:00 +16°C° 2 mm 8 m/s 760 mmHg 82%
16:00 +16°C° 2 mm 9 m/s 760 mmHg 82%
17:00 +16°C° 1.5 mm 9 m/s 760 mmHg 82%
18:00 +16°C° 1.5 mm 10 m/s 760 mmHg 81%
19:00 +16°C° 1.5 mm 10 m/s 760 mmHg 81%
20:00 +16°C° 1.1 mm 10 m/s 761 mmHg 81%
21:00 +16°C° 1.1 mm 10 m/s 761 mmHg 81%
22:00 +16°C° 1.1 mm 10 m/s 761 mmHg 81%
23:00 +16°C° 0.8 mm 10 m/s 761 mmHg 80%

3 Dezembro, Quinta-feira

Tempo Temperatura Precipitação Vento Pressão Humidade
00:00 +16°C° 0.8 mm 10 m/s 761 mmHg 80%
01:00 +16°C° 0.8 mm 11 m/s 761 mmHg 80%
02:00 +16°C° 0.4 mm 10 m/s 760 mmHg 80%
03:00 +16°C° 0.4 mm 10 m/s 760 mmHg 79%
04:00 +16°C° 0.4 mm 10 m/s 760 mmHg 79%
05:00 +16°C° 0.3 mm 10 m/s 760 mmHg 78%
06:00 +16°C° 0.3 mm 10 m/s 760 mmHg 78%
07:00 +16°C° 0.3 mm 11 m/s 759 mmHg 77%
08:00 +16°C° 0.2 mm 11 m/s 759 mmHg 76%
09:00 +16°C° 0.2 mm 11 m/s 759 mmHg 75%
10:00 +16°C° 0.2 mm 11 m/s 759 mmHg 75%
11:00 +16°C° 2 mm 11 m/s 758 mmHg 79%
12:00 +15°C° 2 mm 12 m/s 758 mmHg 83%
13:00 +15°C° 2 mm 13 m/s 757 mmHg 88%
14:00 +15°C° 1.2 mm 13 m/s 757 mmHg 84%
15:00 +15°C° 1.2 mm 13 m/s 757 mmHg 80%
16:00 +17°C° 1.2 mm 13 m/s 756 mmHg 77%
17:00 +17°C° 1.8 mm 13 m/s 756 mmHg 76%
18:00 +17°C° 1.8 mm 13 m/s 756 mmHg 75%
19:00 +17°C° 1.8 mm 13 m/s 756 mmHg 74%
20:00 +16°C° 3.1 mm 11 m/s 756 mmHg 79%
21:00 +16°C° 3.1 mm 10 m/s 755 mmHg 84%
22:00 +15°C° 3.1 mm 9 m/s 755 mmHg 88%
23:00 +15°C° 2.5 mm 8 m/s 755 mmHg 86%

4 Dezembro, Sexta-feira

Tempo Temperatura Precipitação Vento Pressão Humidade
00:00 +15°C° 2.5 mm 6 m/s 755 mmHg 83%
01:00 +15°C° 2.5 mm 5 m/s 755 mmHg 80%
02:00 +15°C° 0.8 mm 5 m/s 755 mmHg 78%
03:00 +15°C° 0.8 mm 6 m/s 755 mmHg 76%
04:00 +15°C° 0.8 mm 6 m/s 754 mmHg 74%
05:00 +15°C° 0.6 mm 6 m/s 754 mmHg 74%
06:00 +15°C° 0.6 mm 7 m/s 754 mmHg 73%
07:00 +15°C° 0.6 mm 8 m/s 754 mmHg 73%
08:00 +16°C° 0.7 mm 8 m/s 754 mmHg 72%
09:00 +16°C° 0.7 mm 8 m/s 755 mmHg 72%
10:00 +16°C° 0.7 mm 8 m/s 755 mmHg 71%
11:00 +16°C° 0.9 mm 8 m/s 754 mmHg 71%
12:00 +16°C° 0.9 mm 8 m/s 754 mmHg 71%
13:00 +16°C° 0.9 mm 8 m/s 754 mmHg 70%
14:00 +16°C° 0.5 mm 8 m/s 754 mmHg 71%
15:00 +16°C° 0.5 mm 7 m/s 754 mmHg 71%
16:00 +15°C° 0.5 mm 7 m/s 754 mmHg 71%
17:00 +15°C° 0.2 mm 7 m/s 754 mmHg 72%
18:00 +16°C° 0.2 mm 6 m/s 755 mmHg 72%
19:00 +16°C° 0.2 mm 6 m/s 755 mmHg 72%
20:00 +16°C° 0 mm 5 m/s 755 mmHg 70%
21:00 +15°C° 0 mm 5 m/s 756 mmHg 68%
22:00 +15°C° 0 mm 5 m/s 756 mmHg 66%
23:00 +15°C° 0 mm 4 m/s 756 mmHg 66%
Mostrar mais